User: anonymous   Login
Location: Ostrava
(49.8330°N, 18.2830°E)
Time: 11:46:37
(UTC+02:00)
Language:

Vanguard 2 Rocket - Orbit

View from above orbital plane
View from above orbital plane
View from above satellite
View from above satellite

Ground track
Ground track

The orbit data is extracted from the following two-line orbital elements,

1 00012U 59001B   15209.18549671  .00000563  00000-0  34395-3 0  9997
2 00012 032.8978 118.9763 1666982 047.2527 325.6813 11.43764234317927
Epoch (UTC): 28 July 2015 04:27:06
Eccentricity: 0.1666982
inclination: 32.8978°
perigee height: 556 km
apogee height: 3330 km
right ascension of ascending node: 118.9763°
argument of perigee: 47.2527°
revolutions per day: 11.43764234
mean anomaly at epoch: 325.6813°
orbit number at epoch: 31792

The dashed part of the orbit path shows where the satellite is in the earth's shadow,  

DLR